Time,TemperatureF,DewpointF,PressureIn,WindDirection,WindDirectionDegrees,WindSpeedMPH,WindSpeedGustMPH,Humidity,HourlyPrecipIn,Conditions,Clouds,dailyrainin,SoftwareType,DateUTC
2013-04-02 00:00:00,27.7,18.5,29.66,WNW,293,1.8,7.8,68,2.59,,,1.55,WUHU216HW,2013-04-02 04:00:00,
2013-04-02 00:05:00,27.5,18.4,29.66,NW,315,4.7,8.7,68,2.59,,,0.07,WUHU216HW,2013-04-02 04:05:00,
2013-04-02 00:10:00,27.5,18.4,29.66,WNW,293,2.2,8.7,68,2.59,,,0.07,WUHU216HW,2013-04-02 04:10:00,
2013-04-02 00:15:00,27.4,18.2,29.66,NNW,338,8.5,8.5,68,2.59,,,0.07,WUHU216HW,2013-04-02 04:15:00,
2013-04-02 00:20:00,27.2,18.0,29.66,NW,315,5.8,9.2,68,2.59,,,0.07,WUHU216HW,2013-04-02 04:20:00,
2013-04-02 00:25:00,27.0,17.8,29.67,NNW,338,2.5,9.2,68,2.59,,,0.07,WUHU216HW,2013-04-02 04:25:00,
2013-04-02 00:30:00,27.0,17.8,29.67,NNW,338,6.5,9.2,68,2.59,,,0.07,WUHU216HW,2013-04-02 04:30:00,
2013-04-02 00:35:00,27.0,17.8,29.67,West,270,5.4,11.2,68,2.59,,,0.07,WUHU216HW,2013-04-02 04:35:00,
2013-04-02 00:40:00,26.8,17.6,29.67,NW,315,5.8,11.2,68,2.59,,,0.07,WUHU216HW,2013-04-02 04:40:00,
2013-04-02 00:45:00,26.8,17.6,29.67,NNW,338,6.7,9.2,68,2.59,,,0.07,WUHU216HW,2013-04-02 04:45:00,
2013-04-02 00:50:00,26.6,17.5,29.67,WNW,293,5.4,8.5,68,2.59,,,0.07,WUHU216HW,2013-04-02 04:50:00,
2013-04-02 00:55:00,26.6,17.5,29.67,NW,315,2.9,9.2,68,2.59,,,0.07,WUHU216HW,2013-04-02 04:55:00,
2013-04-02 01:00:00,26.6,17.5,29.67,West,270,6.5,9.2,68,2.59,,,0.07,WUHU216HW,2013-04-02 05:00:00,
2013-04-02 01:05:00,26.5,17.3,29.67,NW,315,5.6,9.2,68,2.59,,,0.14,WUHU216HW,2013-04-02 05:05:00,
2013-04-02 01:10:00,26.5,17.3,29.67,NNW,338,6.3,9.4,68,2.59,,,0.14,WUHU216HW,2013-04-02 05:10:00,
2013-04-02 01:15:00,26.3,17.1,29.67,NW,315,7.6,10.1,68,2.59,,,0.14,WUHU216HW,2013-04-02 05:15:00,
2013-04-02 01:20:00,26.3,17.1,29.68,North,0,3.8,10.1,68,2.59,,,0.14,WUHU216HW,2013-04-02 05:20:00,
2013-04-02 01:25:00,26.3,17.1,29.67,NNW,338,8.5,8.5,68,2.59,,,0.14,WUHU216HW,2013-04-02 05:25:00,
2013-04-02 01:30:00,26.3,17.1,29.67,NW,315,8.3,8.5,68,2.59,,,0.14,WUHU216HW,2013-04-02 05:30:00,
2013-04-02 01:35:00,26.3,17.1,29.67,NNW,338,7.8,8.5,68,2.59,,,0.14,WUHU216HW,2013-04-02 05:35:00,
2013-04-02 01:40:00,26.3,17.1,29.68,WNW,293,4.0,7.8,68,2.59,,,0.14,WUHU216HW,2013-04-02 05:40:00,
2013-04-02 01:45:00,26.1,16.9,29.67,NW,315,5.1,7.6,68,2.59,,,0.14,WUHU216HW,2013-04-02 05:45:00,
2013-04-02 01:50:00,25.9,16.7,29.67,WNW,293,4.7,8.3,68,2.59,,,0.14,WUHU216HW,2013-04-02 05:50:00,
2013-04-02 01:55:00,25.9,17.1,29.67,North,0,6.9,8.3,69,2.59,,,0.14,WUHU216HW,2013-04-02 05:55:00,
2013-04-02 02:00:00,25.9,17.1,29.67,NNW,338,2.9,12.8,69,2.59,,,0.14,WUHU216HW,2013-04-02 06:00:00,
2013-04-02 02:05:00,25.7,16.9,29.67,NNW,338,8.9,12.8,69,2.59,,,0.21,WUHU216HW,2013-04-02 06:05:00,
2013-04-02 02:10:00,25.6,16.7,29.67,NW,315,3.8,9.4,69,2.59,,,0.21,WUHU216HW,2013-04-02 06:10:00,
2013-04-02 02:15:00,25.6,16.7,29.67,SW,225,6.3,8.5,69,2.59,,,0.21,WUHU216HW,2013-04-02 06:15:00,
2013-04-02 02:20:00,25.6,16.7,29.67,NW,315,5.8,6.9,69,2.59,,,0.21,WUHU216HW,2013-04-02 06:20:00,
2013-04-02 02:25:00,25.6,16.7,29.67,NW,315,6.0,8.5,69,2.59,,,0.21,WUHU216HW,2013-04-02 06:25:00,
2013-04-02 02:30:00,25.4,16.6,29.67,West,270,4.7,8.5,69,2.59,,,0.21,WUHU216HW,2013-04-02 06:30:00,
2013-04-02 02:35:00,25.4,16.6,29.67,NW,315,7.4,8.3,69,2.59,,,0.21,WUHU216HW,2013-04-02 06:35:00,
2013-04-02 02:40:00,25.2,16.4,29.67,WSW,248,4.0,8.9,69,2.59,,,0.21,WUHU216HW,2013-04-02 06:40:00,
2013-04-02 02:45:00,25.2,16.4,29.67,NW,315,4.0,8.9,69,2.59,,,0.21,WUHU216HW,2013-04-02 06:45:00,
2013-04-02 02:50:00,25.0,16.6,29.67,NW,315,4.7,8.7,70,2.59,,,0.21,WUHU216HW,2013-04-02 06:50:00,
2013-04-02 02:55:00,25.0,16.6,29.67,West,270,5.1,10.3,70,2.59,,,0.21,WUHU216HW,2013-04-02 06:55:00,
2013-04-02 03:00:00,25.0,16.6,29.67,NW,315,6.9,10.3,70,0.00,,,0.21,WUHU216HW,2013-04-02 07:00:00,
2013-04-02 03:05:00,24.8,16.4,29.67,WNW,293,4.7,9.2,70,2.59,,,0.29,WUHU216HW,2013-04-02 07:05:00,
2013-04-02 03:10:00,24.8,16.4,29.67,WSW,248,2.7,9.2,70,2.59,,,0.29,WUHU216HW,2013-04-02 07:10:00,
2013-04-02 03:15:00,24.8,16.4,29.67,NNW,338,4.3,10.1,70,2.59,,,0.29,WUHU216HW,2013-04-02 07:15:00,
2013-04-02 03:20:00,24.8,16.0,29.66,WNW,293,8.3,10.5,69,2.59,,,0.29,WUHU216HW,2013-04-02 07:20:00,
2013-04-02 03:25:00,24.8,16.0,29.67,WNW,293,4.5,10.5,69,2.59,,,0.29,WUHU216HW,2013-04-02 07:25:00,
2013-04-02 03:30:00,24.7,15.8,29.67,NW,315,2.9,8.7,69,2.59,,,0.29,WUHU216HW,2013-04-02 07:30:00,
2013-04-02 03:35:00,24.7,15.8,29.67,West,270,6.0,9.6,69,2.59,,,0.29,WUHU216HW,2013-04-02 07:35:00,
2013-04-02 03:40:00,24.7,15.8,29.67,NW,315,8.7,9.6,69,2.59,,,0.29,WUHU216HW,2013-04-02 07:40:00,
2013-04-02 03:45:00,24.5,15.8,29.67,NW,315,5.4,9.4,69,2.59,,,0.29,WUHU216HW,2013-04-02 07:45:00,
2013-04-02 03:50:00,24.5,15.8,29.67,NW,315,6.7,9.8,69,2.59,,,0.29,WUHU216HW,2013-04-02 07:50:00,
2013-04-02 03:55:00,24.5,15.8,29.67,NNW,338,8.3,9.8,69,2.59,,,0.29,WUHU216HW,2013-04-02 07:55:00,
2013-04-02 04:00:00,24.5,15.8,29.67,SW,225,5.8,9.2,69,2.59,,,0.29,WUHU216HW,2013-04-02 08:00:00,
2013-04-02 04:05:00,24.5,15.8,29.67,NW,315,8.1,10.5,69,2.59,,,0.36,WUHU216HW,2013-04-02 08:05:00,
2013-04-02 04:10:00,24.5,15.8,29.67,NW,315,6.3,10.5,69,2.59,,,0.36,WUHU216HW,2013-04-02 08:10:00,
2013-04-02 04:15:00,24.3,15.6,29.67,NW,315,4.7,8.5,69,2.59,,,0.36,WUHU216HW,2013-04-02 08:15:00,
2013-04-02 04:20:00,24.3,15.9,29.67,NNW,338,4.5,8.9,70,2.59,,,0.36,WUHU216HW,2013-04-02 08:20:00,
2013-04-02 04:25:00,24.3,15.6,29.67,NW,315,4.9,9.8,69,2.59,,,0.36,WUHU216HW,2013-04-02 08:25:00,
2013-04-02 04:30:00,24.5,15.8,29.67,WNW,293,6.3,9.8,69,2.59,,,0.36,WUHU216HW,2013-04-02 08:30:00,
2013-04-02 04:35:00,24.5,15.8,29.67,NNW,338,8.9,8.9,69,2.59,,,0.36,WUHU216HW,2013-04-02 08:35:00,
2013-04-02 04:40:00,24.5,15.8,29.67,NNW,338,9.2,13.0,69,2.59,,,0.36,WUHU216HW,2013-04-02 08:40:00,
2013-04-02 04:45:00,24.7,15.8,29.67,NNW,338,9.6,13.0,69,2.59,,,0.36,WUHU216HW,2013-04-02 08:45:00,
2013-04-02 04:50:00,24.7,15.8,29.67,WNW,293,6.9,9.6,69,2.59,,,0.36,WUHU216HW,2013-04-02 08:50:00,
2013-04-02 04:55:00,24.7,15.8,29.67,NW,315,6.5,9.2,69,2.59,,,0.36,WUHU216HW,2013-04-02 08:55:00,
2013-04-02 05:00:00,24.5,15.8,29.67,NNW,338,4.5,8.7,69,2.59,,,0.36,WUHU216HW,2013-04-02 09:00:00,
2013-04-02 05:05:00,24.5,15.8,29.67,NW,315,6.9,9.2,69,2.59,,,0.43,WUHU216HW,2013-04-02 09:05:00,
2013-04-02 05:10:00,24.5,15.8,29.67,West,270,6.7,9.8,69,2.59,,,0.43,WUHU216HW,2013-04-02 09:10:00,
2013-04-02 05:15:00,24.7,15.8,29.67,NW,315,6.9,12.5,69,2.59,,,0.43,WUHU216HW,2013-04-02 09:15:00,
2013-04-02 05:20:00,24.7,15.8,29.67,WNW,293,5.4,12.5,69,2.59,,,0.43,WUHU216HW,2013-04-02 09:20:00,
2013-04-02 05:25:00,24.7,15.8,29.68,NNW,338,7.4,11.9,69,2.59,,,0.43,WUHU216HW,2013-04-02 09:25:00,
2013-04-02 05:30:00,24.7,15.8,29.68,NW,315,5.8,11.9,69,2.59,,,0.43,WUHU216HW,2013-04-02 09:30:00,
2013-04-02 05:35:00,24.7,15.8,29.68,West,270,3.4,9.6,69,2.59,,,0.43,WUHU216HW,2013-04-02 09:35:00,
2013-04-02 05:40:00,24.7,15.6,29.68,West,270,4.3,12.5,68,2.59,,,0.43,WUHU216HW,2013-04-02 09:40:00,
2013-04-02 05:45:00,24.7,15.6,29.68,NNW,338,5.8,12.5,68,2.59,,,0.43,WUHU216HW,2013-04-02 09:45:00,
2013-04-02 05:50:00,24.7,15.6,29.68,NNW,338,5.6,12.1,68,2.59,,,0.43,WUHU216HW,2013-04-02 09:50:00,
2013-04-02 05:55:00,24.7,15.8,29.68,WNW,293,6.3,10.5,69,2.59,,,0.43,WUHU216HW,2013-04-02 09:55:00,
2013-04-02 06:00:00,24.7,15.8,29.68,NW,315,10.3,11.4,69,2.59,,,0.43,WUHU216HW,2013-04-02 10:00:00,
2013-04-02 06:05:00,24.7,15.8,29.68,NW,315,7.4,11.4,69,2.59,,,0.50,WUHU216HW,2013-04-02 10:05:00,
2013-04-02 06:10:00,24.7,15.8,29.68,NNW,338,5.8,10.3,69,2.59,,,0.50,WUHU216HW,2013-04-02 10:10:00,
2013-04-02 06:15:00,24.7,15.6,29.68,NW,315,8.5,11.0,68,2.59,,,0.50,WUHU216HW,2013-04-02 10:15:00,
2013-04-02 06:20:00,24.7,15.6,29.69,North,0,6.3,13.4,68,2.59,,,0.50,WUHU216HW,2013-04-02 10:20:00,
2013-04-02 06:25:00,24.7,15.6,29.69,NW,315,8.7,13.4,68,2.59,,,0.50,WUHU216HW,2013-04-02 10:25:00,
2013-04-02 06:30:00,24.5,15.4,29.69,West,270,6.9,10.1,68,2.59,,,0.50,WUHU216HW,2013-04-02 10:30:00,
2013-04-02 06:35:00,24.5,15.8,29.69,NW,315,10.7,11.0,69,2.59,,,0.50,WUHU216HW,2013-04-02 10:35:00,
2013-04-02 06:40:00,24.7,15.8,29.69,NNW,338,3.8,11.0,69,2.59,,,0.50,WUHU216HW,2013-04-02 10:40:00,
2013-04-02 06:45:00,24.5,15.8,29.69,NNW,338,8.3,9.2,69,2.59,,,0.50,WUHU216HW,2013-04-02 10:45:00,
2013-04-02 06:50:00,24.5,15.8,29.70,WNW,293,8.7,10.1,69,2.59,,,0.50,WUHU216HW,2013-04-02 10:50:00,
2013-04-02 06:55:00,24.5,15.4,29.70,NNW,338,6.7,10.1,68,2.59,,,0.50,WUHU216HW,2013-04-02 10:55:00,
2013-04-02 07:00:00,24.5,15.4,29.70,NW,315,6.9,9.8,68,2.59,,,0.50,WUHU216HW,2013-04-02 11:00:00,
2013-04-02 07:05:00,24.5,15.4,29.70,WNW,293,5.8,9.8,68,2.59,,,0.57,WUHU216HW,2013-04-02 11:05:00,
2013-04-02 07:10:00,24.5,15.8,29.70,West,270,5.4,9.2,69,2.59,,,0.57,WUHU216HW,2013-04-02 11:10:00,
2013-04-02 07:15:00,24.5,15.8,29.70,NW,315,8.5,9.2,69,2.59,,,0.57,WUHU216HW,2013-04-02 11:15:00,
2013-04-02 07:20:00,24.5,15.8,29.70,North,0,9.2,9.8,69,2.59,,,0.57,WUHU216HW,2013-04-02 11:20:00,
2013-04-02 07:25:00,24.7,15.8,29.71,NW,315,10.3,11.4,69,2.59,,,0.57,WUHU216HW,2013-04-02 11:25:00,
2013-04-02 07:30:00,24.8,16.0,29.71,NW,315,12.5,12.5,69,2.59,,,0.57,WUHU216HW,2013-04-02 11:30:00,
2013-04-02 07:35:00,24.8,16.0,29.71,NW,315,5.6,12.5,69,2.59,,,0.57,WUHU216HW,2013-04-02 11:35:00,
2013-04-02 07:40:00,24.8,16.4,29.71,NNW,338,4.7,12.5,70,2.59,,,0.57,WUHU216HW,2013-04-02 11:40:00,
2013-04-02 07:45:00,25.0,16.6,29.71,WNW,293,6.7,8.9,70,2.59,,,0.57,WUHU216HW,2013-04-02 11:45:00,
2013-04-02 07:50:00,25.2,16.7,29.71,NNW,338,6.9,10.5,70,2.59,,,0.57,WUHU216HW,2013-04-02 11:50:00,
2013-04-02 07:55:00,25.2,16.7,29.71,NNE,23,6.9,12.5,70,2.59,,,0.57,WUHU216HW,2013-04-02 11:55:00,
2013-04-02 08:00:00,25.6,17.1,29.71,NW,315,11.6,13.6,70,2.59,,,0.57,WUHU216HW,2013-04-02 12:00:00,
2013-04-02 08:05:00,25.6,17.1,29.72,NNW,338,8.5,13.6,70,2.59,,,0.64,WUHU216HW,2013-04-02 12:05:00,
2013-04-02 08:10:00,25.7,17.3,29.72,North,0,9.4,11.6,70,2.59,,,0.64,WUHU216HW,2013-04-02 12:10:00,
2013-04-02 08:15:00,25.7,16.9,29.72,NNW,338,6.0,11.6,69,2.59,,,0.64,WUHU216HW,2013-04-02 12:15:00,
2013-04-02 08:20:00,25.9,17.1,29.72,NW,315,8.7,10.3,69,2.59,,,0.64,WUHU216HW,2013-04-02 12:20:00,
2013-04-02 08:25:00,26.1,16.9,29.73,WNW,293,8.9,11.9,68,2.59,,,0.64,WUHU216HW,2013-04-02 12:25:00,
2013-04-02 08:30:00,26.3,16.7,29.73,North,0,13.4,14.3,67,2.59,,,0.64,WUHU216HW,2013-04-02 12:30:00,
2013-04-02 08:35:00,26.3,16.7,29.73,NNW,338,5.4,14.3,67,2.59,,,0.64,WUHU216HW,2013-04-02 12:35:00,
2013-04-02 08:40:00,26.5,16.9,29.73,NW,315,7.6,14.1,67,2.59,,,0.64,WUHU216HW,2013-04-02 12:40:00,
2013-04-02 08:45:00,26.6,16.7,29.73,WNW,293,7.6,13.6,66,2.59,,,0.64,WUHU216HW,2013-04-02 12:45:00,
2013-04-02 08:50:00,27.0,17.1,29.73,NW,315,9.8,11.4,66,2.59,,,0.64,WUHU216HW,2013-04-02 12:50:00,
2013-04-02 08:55:00,27.0,16.7,29.73,SW,225,11.2,14.5,65,2.59,,,0.64,WUHU216HW,2013-04-02 12:55:00,
2013-04-02 09:00:00,27.0,16.7,29.73,WNW,293,8.3,14.5,65,2.59,,,0.64,WUHU216HW,2013-04-02 13:00:00,
2013-04-02 09:05:00,27.2,16.6,29.73,NNW,338,8.7,15.0,64,2.59,,,0.71,WUHU216HW,2013-04-02 13:05:00,
2013-04-02 09:10:00,27.4,16.7,29.73,NW,315,7.6,17.0,64,2.59,,,0.71,WUHU216HW,2013-04-02 13:10:00,
2013-04-02 09:15:00,27.7,17.1,29.73,NW,315,7.6,17.0,64,2.59,,,0.71,WUHU216HW,2013-04-02 13:15:00,
2013-04-02 09:20:00,27.7,17.1,29.73,WNW,293,3.6,15.9,64,2.59,,,0.71,WUHU216HW,2013-04-02 13:20:00,
2013-04-02 09:25:00,27.9,16.9,29.73,NNW,338,8.5,12.8,63,2.59,,,0.71,WUHU216HW,2013-04-02 13:25:00,
2013-04-02 09:30:00,28.3,16.9,29.73,NNW,338,6.0,12.5,62,2.59,,,0.71,WUHU216HW,2013-04-02 13:30:00,
2013-04-02 09:35:00,28.4,17.5,29.73,NW,315,6.9,12.5,63,2.59,,,0.71,WUHU216HW,2013-04-02 13:35:00,
2013-04-02 09:40:00,28.4,17.1,29.73,NNW,338,8.1,17.2,62,2.59,,,0.71,WUHU216HW,2013-04-02 13:40:00,
2013-04-02 09:45:00,28.6,17.3,29.73,NNW,338,4.7,17.2,62,2.59,,,0.71,WUHU216HW,2013-04-02 13:45:00,
2013-04-02 09:50:00,29.2,17.7,29.73,NW,315,7.8,13.4,62,2.59,,,0.71,WUHU216HW,2013-04-02 13:50:00,
2013-04-02 09:55:00,29.5,18.1,29.73,NW,315,6.3,14.3,62,2.59,,,0.71,WUHU216HW,2013-04-02 13:55:00,
2013-04-02 10:00:00,29.9,18.4,29.73,NNW,338,5.8,14.3,62,2.59,,,0.71,WUHU216HW,2013-04-02 14:00:00,
2013-04-02 10:05:00,30.2,18.0,29.73,NW,315,7.2,14.1,60,2.59,,,0.78,WUHU216HW,2013-04-02 14:05:00,
2013-04-02 10:10:00,30.1,17.8,29.73,NNW,338,6.9,14.1,60,2.59,,,0.78,WUHU216HW,2013-04-02 14:10:00,
2013-04-02 10:15:00,30.2,18.0,29.73,NNW,338,6.9,12.1,60,2.59,,,0.78,WUHU216HW,2013-04-02 14:15:00,
2013-04-02 10:20:00,30.4,18.2,29.73,NNW,338,10.1,14.3,60,2.59,,,0.78,WUHU216HW,2013-04-02 14:20:00,
2013-04-02 10:25:00,30.6,17.6,29.73,NW,315,7.2,14.3,58,2.59,,,0.78,WUHU216HW,2013-04-02 14:25:00,
2013-04-02 10:30:00,30.6,17.9,29.73,NW,315,8.7,14.5,59,2.59,,,0.78,WUHU216HW,2013-04-02 14:30:00,
2013-04-02 10:35:00,30.4,17.4,29.73,NW,315,7.6,15.7,58,2.59,,,0.78,WUHU216HW,2013-04-02 14:35:00,
2013-04-02 10:40:00,30.2,17.6,29.73,North,0,8.9,15.7,59,2.59,,,0.78,WUHU216HW,2013-04-02 14:40:00,
2013-04-02 10:45:00,30.4,17.4,29.73,West,270,7.6,15.0,58,2.59,,,0.78,WUHU216HW,2013-04-02 14:45:00,
2013-04-02 10:50:00,30.6,17.9,29.73,WNW,293,5.1,12.5,59,2.59,,,0.78,WUHU216HW,2013-04-02 14:50:00,
2013-04-02 10:55:00,31.0,18.3,29.74,NW,315,10.1,13.6,59,2.59,,,0.78,WUHU216HW,2013-04-02 14:55:00,
2013-04-02 11:00:00,30.8,17.7,29.73,WNW,293,9.8,16.6,58,2.59,,,0.78,WUHU216HW,2013-04-02 15:00:00,
2013-04-02 11:05:00,31.0,18.3,29.74,West,270,8.5,16.6,59,2.59,,,0.85,WUHU216HW,2013-04-02 15:05:00,
2013-04-02 11:10:00,30.6,17.6,29.74,NW,315,14.5,17.9,58,2.59,,,0.85,WUHU216HW,2013-04-02 15:10:00,
2013-04-02 11:15:00,30.8,18.1,29.74,WSW,248,8.5,17.9,59,2.59,,,0.85,WUHU216HW,2013-04-02 15:15:00,
2013-04-02 11:20:00,31.1,18.1,29.74,West,270,8.5,18.3,58,2.59,,,0.85,WUHU216HW,2013-04-02 15:20:00,
2013-04-02 11:25:00,31.1,18.5,29.74,NW,315,10.5,18.3,59,2.59,,,0.85,WUHU216HW,2013-04-02 15:25:00,
2013-04-02 11:30:00,31.3,18.6,29.74,NW,315,13.0,15.9,59,2.59,,,0.85,WUHU216HW,2013-04-02 15:30:00,
2013-04-02 11:35:00,31.9,19.2,29.74,NW,315,11.6,17.9,59,2.59,,,0.85,WUHU216HW,2013-04-02 15:35:00,
2013-04-02 11:40:00,31.7,19.0,29.74,NW,315,8.5,17.9,59,2.59,,,0.85,WUHU216HW,2013-04-02 15:40:00,
2013-04-02 11:45:00,31.9,19.6,29.74,NW,315,15.2,18.6,60,2.59,,,0.85,WUHU216HW,2013-04-02 15:45:00,
2013-04-02 11:51:00,31.7,19.8,29.75,WNW,293,19.5,23.0,61,2.59,,,0.85,WUHU216HW,2013-04-02 15:51:00,
2013-04-02 11:56:00,31.3,19.8,29.74,NW,315,11.2,23.0,62,2.59,,,0.85,WUHU216HW,2013-04-02 15:56:00,
2013-04-02 12:01:00,31.3,19.8,29.74,NNW,338,20.1,20.1,62,2.59,,,0.92,WUHU216HW,2013-04-02 16:01:00,
2013-04-02 12:06:00,31.3,19.8,29.74,NW,315,13.6,20.1,62,2.59,,,0.92,WUHU216HW,2013-04-02 16:06:00,
2013-04-02 12:11:00,31.3,19.8,29.75,NNE,23,13.6,23.0,62,2.59,,,0.92,WUHU216HW,2013-04-02 16:11:00,
2013-04-02 12:16:00,31.3,19.8,29.74,WNW,293,14.5,23.0,62,2.59,,,0.92,WUHU216HW,2013-04-02 16:16:00,
2013-04-02 12:21:00,31.7,20.5,29.74,WNW,293,9.2,20.1,63,2.59,,,0.92,WUHU216HW,2013-04-02 16:21:00,
2013-04-02 12:26:00,32.6,21.3,29.74,NW,315,12.3,20.1,63,2.59,,,0.92,WUHU216HW,2013-04-02 16:26:00,
2013-04-02 12:31:00,33.3,21.7,29.74,NW,315,16.3,20.1,62,2.59,,,0.92,WUHU216HW,2013-04-02 16:31:00,
2013-04-02 12:36:00,33.1,21.2,29.74,NNW,338,11.6,16.6,61,2.59,,,0.92,WUHU216HW,2013-04-02 16:36:00,
2013-04-02 12:41:00,33.1,20.8,29.74,WNW,293,14.5,22.4,60,2.59,,,0.92,WUHU216HW,2013-04-02 16:41:00,
2013-04-02 12:46:00,32.9,20.6,29.74,West,270,9.8,22.4,60,2.59,,,0.92,WUHU216HW,2013-04-02 16:46:00,
2013-04-02 12:51:00,32.9,21.0,29.74,NW,315,10.7,21.7,61,2.59,,,0.92,WUHU216HW,2013-04-02 16:51:00,
2013-04-02 12:57:00,33.3,21.7,29.74,West,270,12.1,21.7,62,2.59,,,0.92,WUHU216HW,2013-04-02 16:57:00,
2013-04-02 13:02:00,33.7,22.0,29.74,NNW,338,12.8,22.4,62,2.59,,,0.99,WUHU216HW,2013-04-02 17:02:00,
2013-04-02 13:07:00,33.5,21.8,29.74,NW,315,9.8,22.4,62,2.59,,,0.99,WUHU216HW,2013-04-02 17:07:00,
2013-04-02 13:12:00,33.7,22.0,29.73,West,270,9.2,20.8,62,2.59,,,0.99,WUHU216HW,2013-04-02 17:12:00,
2013-04-02 13:17:00,33.8,21.4,29.73,NW,315,15.4,19.9,60,2.59,,,0.99,WUHU216HW,2013-04-02 17:17:00,
2013-04-02 13:22:00,33.5,21.4,29.73,NNW,338,16.3,21.7,61,2.59,,,0.99,WUHU216HW,2013-04-02 17:22:00,
2013-04-02 13:27:00,33.5,21.4,29.73,WNW,293,7.6,21.7,61,2.59,,,0.99,WUHU216HW,2013-04-02 17:27:00,
2013-04-02 13:33:00,33.7,21.2,29.73,NNW,338,13.4,20.1,60,2.60,,,1.01,WUHU216HW,2013-04-02 17:33:00,
2013-04-02 13:38:00,32.8,20.4,29.73,WNW,293,22.6,23.7,60,2.60,,,1.01,WUHU216HW,2013-04-02 17:38:00,
2013-04-02 13:43:00,32.6,20.6,29.73,NW,315,20.8,23.7,61,2.60,,,1.01,WUHU216HW,2013-04-02 17:43:00,
2013-04-02 13:48:00,32.8,20.4,29.73,NW,315,17.4,20.8,60,2.60,,,1.01,WUHU216HW,2013-04-02 17:48:00,
2013-04-02 13:53:00,33.5,21.1,29.73,NW,315,16.3,19.7,60,2.60,,,1.01,WUHU216HW,2013-04-02 17:53:00,
2013-04-02 13:58:00,34.0,21.2,29.73,West,270,16.3,22.1,59,2.60,,,1.01,WUHU216HW,2013-04-02 17:58:00,
2013-04-02 14:03:00,33.8,21.0,29.73,NNW,338,20.6,23.5,59,2.60,,,1.09,WUHU216HW,2013-04-02 18:03:00,
2013-04-02 14:08:00,33.1,20.3,29.73,WNW,293,11.4,23.5,59,2.60,,,1.09,WUHU216HW,2013-04-02 18:08:00,
2013-04-02 14:28:00,33.5,21.1,29.74,WNW,293,23.0,23.0,60,2.59,,,1.09,WUHU216HW,2013-04-02 18:28:00,
2013-04-02 14:32:00,33.5,21.4,29.73,NW,315,16.8,23.0,61,2.59,,,1.09,WUHU216HW,2013-04-02 18:32:00,